GORIZONT 31 [-]

Last updated on Nov. 15, 2019, 4:20 a.m. UTC

1 23775U 96005A   19317.39228177  .00000088  00000-0  00000-0 0  9990
2 23775  14.4580  13.5465 0016703 187.1051 194.3303  0.99893873 87006
UTC
Height (km)
Latitude
Longitude
Inclination
Orbital Period
UTC large
Height (km)
Speed (km/s)
/
Latitude / Longitude
Inclination (degrees)
Orbital Period (minutes)
Azimuth
Elevation
Range (km)
Doppler Factor
iOS Compass Heading
iOS Angle

Next 30 passes for location: Hong Kong

Rise time Rise Azimuth (degrees) Set time Set Azimuth (degrees) Duration Max altitude (degrees)

No matching passes for this satellites